Ana Sayfa
METAR-TAF:

METAR-TAF

Havaalanları :

Winston Field

Snyder, Teksas, Amerika Birleşik Devletleri

Enlem: 32-41-36N, Boylam: 100-57-01W, yükseklik: 741 m

Güncel hava durumu gözlemi

Rapor saat 03:55 UTC de 25 dakika önce yapıldı.
Rüzgar kuzeydoğudan 13 kt ve 18 kt'a kadar ani rüzgarlar
Sıcaklık 2°C
Nem 87%
Basınç 1012 hPa
Görüş mesafesi: 16.1 km
Açık gökyüzü

METAR: KSNK 160355Z AUTO 05013G18KT 10SM CLR 02/00 A2988 RMK AO2 T00201005

Saat: 22:20 (04:20 UTC)


TAF: eksik

4.000'den fazla havaalanı için hava durumu gözlemleri ve tahminleri (METAR ve TAF raporları).

Kullanılabilir istasyonlar harita üzerinde sarı ve kırmızı noktalarla gösterilir.

İstasyonun adını görmek için fareyi noktanın üzerinde gezdirin.

Sonrasında hava gözlem ve tahminlerini görmek için tıklayın.

Haritayı değiştirmek için: yaklaştırmak için siyah artı işaretli yeşil düğmeye ve uzaklaştırmak için de eksi işaretli düğmeye hızla tıklayın; bitişik haritalar için yeşil okları kullanın.


METAR-TAF: